Weather History for KPMD - April, 2012

Change the Weather History Date:

Saturday, April 21, 2012

  Actual Average Record
Temperature  
Mean Temperature 77 °F 59 °F  
Max Temperature 95 °F 74 °F 95 °F (2012)
Min Temperature 59 °F 45 °F 32 °F (1984)
Degree Days  
Heating Degree Days 0 6  
Month to date heating degree days 184 182  
Since 1 July heating degree days 2793 2803  
Cooling Degree Days 12 1  
Month to date cooling degree days 25 6  
Year to date cooling degree days 25 8  
Growing Degree Days 26 (Base 50)    
Moisture  
Dew Point 42 °F    
Average Humidity 33    
Maximum Humidity 52    
Minimum Humidity 13    
Precipitation  
Precipitation 0.00 in 0.01 in 0.26 in (2010)
Month to date precipitation 0.62 0.35  
Year to date precipitation 1.79 4.86  
Since 1 July precipitation 3.72  
Snow  
Snow 0.00 in - T in (1970)
Month to date snowfall 0.0  
Since 1 July snowfall 0.0  
Snow Depth 0.00 in    
Sea Level Pressure  
Sea Level Pressure 29.91 in    
Wind  
Wind Speed 8 mph (SW)    
Max Wind Speed 22 mph    
Max Gust Speed 26 mph    
Visibility 10 miles    
Events      
T = Trace of Precipitation, MM = Missing Value Source: NWS Daily Summary

Daily Weather History Graph

Daily Weather History Graph

Search for Another Location

Airport or City:

Trip Planner

Search our weather history database for the weather conditions in past years. The results will help you decide how hot, cold, wet, or windy it might be!

Date:

Astronomy

Apr. 21, 2012 Rise Set
Actual Time 6:12 AM PDT 7:29 PM PDT
Civil Twilight 5:46 AM PDT 7:56 PM PDT
Nautical Twilight 5:15 AM PDT 8:27 PM PDT
Astronomical Twilight 4:42 AM PDT 9:00 PM PDT
Moon 6:13 AM PDT (4/21) 8:11 PM PDT (4/21)
Length of Visible Light 14h 09m
Length of Day
13h 17m
New Moon, 0% of the Moon is Illuminated
Apr 21
New Moon
Apr 29
First Quarter
May 5
Full
May 12
Last Quarter
May 20
New

Hourly Weather History & Observations

Time (PDT) Temp. Dew Point Humidity Pressure Visibility Wind Dir Wind Speed Gust Speed Precip Events Conditions
12:53 AM 66.0 °F 44.1 °F 45% 29.95 in 10.0 mi South 10.4 mph - N/A   Clear
1:53 AM 64.0 °F 44.1 °F 48% 29.94 in 10.0 mi South 8.1 mph - N/A   Clear
2:53 AM 62.1 °F 44.1 °F 52% 29.93 in 10.0 mi SSW 9.2 mph - N/A   Clear
3:53 AM 61.0 °F 43.0 °F 52% 29.92 in 10.0 mi SSW 8.1 mph - N/A   Clear
4:53 AM 60.1 °F 42.1 °F 51% 29.92 in 10.0 mi SSW 9.2 mph - N/A   Clear
5:53 AM 59.0 °F 43.0 °F 55% 29.92 in 10.0 mi SSW 8.1 mph - N/A   Clear
6:53 AM 61.0 °F 44.1 °F 54% 29.94 in 10.0 mi SW 4.6 mph - N/A   Clear
7:53 AM 69.1 °F 43.0 °F 39% 29.95 in 10.0 mi Calm Calm - N/A   Clear
8:53 AM 75.9 °F 43.0 °F 31% 29.95 in 10.0 mi Calm Calm - N/A   Clear
9:53 AM 81.0 °F 39.0 °F 22% 29.95 in 10.0 mi Calm Calm - N/A   Clear
10:53 AM 86.0 °F 39.0 °F 19% 29.94 in 10.0 mi Variable 3.5 mph - N/A   Clear
11:53 AM 88.0 °F 37.0 °F 16% 29.93 in 10.0 mi Calm Calm - N/A   Clear
12:53 PM 93.0 °F 36.0 °F 13% 29.91 in 10.0 mi ENE 5.8 mph - N/A   Clear
1:53 PM 93.0 °F 36.0 °F 13% 29.88 in 10.0 mi Variable 4.6 mph - N/A   Clear
2:53 PM 91.9 °F 37.0 °F 15% 29.87 in 10.0 mi WSW 8.1 mph - N/A   Clear
3:53 PM 93.0 °F 42.1 °F 17% 29.85 in 10.0 mi WSW 15.0 mph 21.9 mph N/A   Clear
4:53 PM 91.0 °F 43.0 °F 19% 29.85 in 10.0 mi WSW 18.4 mph - N/A   Clear
5:53 PM 89.1 °F 44.1 °F 21% 29.85 in 10.0 mi SW 18.4 mph - N/A   Clear
6:53 PM 84.9 °F 46.0 °F 26% 29.84 in 10.0 mi SW 18.4 mph - N/A   Clear
7:53 PM 81.0 °F 46.9 °F 30% 29.86 in 10.0 mi SW 12.7 mph - N/A   Clear
8:53 PM 78.8 °F 42.8 °F 28% 29.96 in 10.0 mi NW 8.1 mph - N/A   Clear
9:53 PM 73.9 °F 42.1 °F 32% 29.90 in 10.0 mi WNW 4.6 mph - N/A   Clear
10:53 PM 71.1 °F 42.1 °F 35% 29.90 in 10.0 mi South 6.9 mph - N/A   Clear
11:53 PM 68.0 °F 45.0 °F 43% 29.90 in 10.0 mi WSW 4.6 mph - N/A   Clear